sat.trackr.live / text

‹ back to catalog

STARLINK-30949

NORAD 58415 · 2023-180P

PAYLOAD ACTIVE UNKNOWN

§ Identity

Operator
Country
US
Launch date
2023-11-22
Launch site
AFETR
Launch vehicle
Mass (kg)
RCS (m²)

Purposes: comms

External: N2YO · Heavens-Above · Gunter

§ Orbital elements

Epoch: 2026-09-20T15:51:55.511424Z

Period
94.27 min
Inclination
43.0031°
Eccentricity
0.0000773
Mean motion
15.27579761 rev/d
Perigee alt
482.5 km
Apogee alt
483.6 km
Semi-major
6,861.2 km
B*
1.8273e-5
RAAN
31.4862°
Arg perigee
275.5479°
Mean anomaly
84.5284°
Rev number
15,744

§ Raw data

STARLINK-309491 58415U 23180P   26263.66105916  .00000241  00000+0  18273-4 0  99912 58415  43.0031  31.4862 0000773 275.5479  84.5284 15.27579761157448

JSON: /api/v1/satellites/58415 · /tle

For live sub-satellite position, see the globe view (requires WebGL).

§ Visibility from observer

Set your observer location to see the next 7 days of passes ≥ 10°. The values pass through the URL so the page stays shareable.

No JS? Fill the form by hand. The geolocation button needs JavaScript.